COSMOS 2533

Last updated on Jan. 20, 2021, 6:22 a.m. UTC

1 43867U 18107A   21019.84802236 -.00000033  00000-0  00000-0 0  9998
2 43867   0.0324 122.5040 0000565 194.2371 177.9847  1.00268250  7628
UTC
Height (km)
Latitude
Longitude
Inclination
Orbital Period
UTC large
Height (km)
Speed (km/s)
/
Latitude / Longitude
Inclination (degrees)
Orbital Period (minutes)
Azimuth
Elevation
Range (km)
Doppler Factor
iOS Compass Heading
iOS Angle

Next 30 passes for location: Hong Kong

Rise time Rise Azimuth (degrees) Set time Set Azimuth (degrees) Duration Max altitude (degrees)

No matching passes for this satellites